Temperature
9 9 9 9 9 9 9 9 9 9 9 9 9 9 9 9 9 9 9 9 9 9 9 10 10 10 10 10 10 10 10 10 10 10 10 10 11 11 11 11 11 11 11
8 8 8 8 8 8 9 8 9 9 9 9 9 9 9 9 9 9 9 9 9 9 9 9 9 9 9 9 9 9 10 10 10 10 10 10 10 10 10 10 10 10 10
8 8 8 8 8 8 8 8 8 8 8 8 8 8 8 8 8 8 8 8 9 9 9 9 9 9 9 9 9 9 9 9 9 9 9 9 10 10 10 10 10 10 10
7 7 7 7 7 7 7 7 7 8 7 7 7 7 8 8 8 8 8 8 8 8 8 8 8 8 8 8 8 8 8 9 9 9 9 9 9 9 9 9 9 9 10
7 7 7 7 7 7 7 7 7 7 7 7 7 7 7 7 7 7 7 7 7 7 7 7 8 8 8 8 8 8 8 8 8 8 8 8 8 8 9 9 9 9 9
6 6 6 6 6 6 6 6 6 6 6 6 6 6 6 6 6 6 6 6 7 7 7 7 7 7 7 7 7 7 7 7 7 7 8 8 8 8 8 8 8 8 9
6 6 5 6 6 6 6 6 6 5 5 5 5 5 5 5 5 5 6 6 6 6 6 6 6 6 6 6 7 7 7 7 7 7 7 7 7 7 7 7 8 8 8
5 5 5 5 5 5 5 5 5 5 5 5 4 4 4 4 4 5 5 5 5 5 6 6 6 6 6 6 6 6 6 6 6 6 6 6 6 6 6 7 7 7 7
5 5 5 5 4 4 4 4 4 4 4 4 4 3 3 3 3 4 4 4 5 5 5 5 5 5 5 5 5 5 5 5 5 5 5 5 5 5 6 6 6 6 7
4 4 4 4 4 4 4 4 4 3 3 3 3 3 3 3 2 2 3 3 4 4 4 4 4 4 4 4 4 4 5 4 4 4 5 5 5 5 5 5 5 6 6
3 3 3 3 3 3 3 3 3 3 3 3 3 3 2 2 2 2 2 2 2 3 3 3 3 3 4 4 4 4 4 4 4 4 4 4 4 4 4 5 5 5 5
3 3 3 3 2 2 2 2 2 2 2 2 2 2 2 2 2 2 1 1 1 1 2 2 2 2 2 2 3 3 3 3 3 3 3 3 3 4 4 4 4 4 4
2 2 2 2 2 2 2 2 2 1 1 1 1 1 1 1 1 1 1 1 0 0 1 1 1 1 1 1 2 2 2 2 2 2 2 2 3 3 3 3 3 3 4
1 1 1 1 1 1 1 1 1 1 0 0 1 1 1 1 0 0 0 0 -0 -0 -0 -0 0 0 0 0 1 1 1 1 2 2 2 2 2 2 2 3 3 3 3
1 1 0 0 0 0 0 0 -0 -0 -0 -0 -0 -0 -0 -0 -0 -0 -0 -1 -1 -1 -1 -1 -1 -0 -0 -0 -0 -0 0 0 1 1 1 1 1 1 2 2 2 2 2
-0 -0 -0 -0 -0 -0 -1 -1 -1 -1 -1 -1 -1 -1 -1 -1 -1 -1 -1 -1 -1 -2 -2 -2 -1 -1 -1 -1 -1 -1 -1 -0 -0 -0 -0 -0 0 0 1 1 1 1 1
-1 -1 -1 -1 -1 -1 -1 -1 -2 -2 -2 -2 -2 -2 -2 -2 -2 -2 -2 -2 -2 -2 -2 -2 -2 -2 -2 -2 -1 -1 -1 -1 -1 -1 -1 -1 -1 -1 -0 -0 -0 0 0
-2 -2 -2 -2 -2 -2 -2 -2 -2 -2 -2 -2 -2 -3 -3 -3 -3 -3 -3 -3 -3 -3 -3 -3 -3 -3 -2 -2 -2 -2 -2 -2 -2 -2 -2 -2 -2 -1 -1 -1 -1 -1 -0
-3 -3 -3 -3 -3 -3 -3 -3 -3 -3 -3 -3 -3 -3 -3 -3 -3 -3 -4 -4 -4 -4 -4 -4 -4 -4 -3 -3 -3 -3 -3 -3 -3 -3 -3 -3 -2 -2 -2 -2 -2 -1 -1
-3 -3 -3 -3 -3 -4 -4 -4 -4 -4 -4 -4 -4 -4 -4 -4 -4 -4 -4 -5 -5 -5 -5 -5 -5 -4 -4 -4 -4 -4 -4 -4 -4 -4 -4 -3 -3 -3 -3 -3 -2 -2 -2
-4 -4 -4 -4 -4 -4 -4 -5 -5 -5 -5 -5 -5 -5 -5 -5 -5 -5 -5 -5 -5 -5 -5 -5 -5 -5 -5 -5 -5 -5 -5 -5 -5 -4 -4 -4 -4 -4 -4 -4 -3 -3 -3
-5 -5 -5 -5 -5 -5 -5 -5 -5 -6 -6 -6 -6 -6 -6 -6 -6 -6 -6 -6 -6 -6 -6 -6 -6 -6 -6 -5 -5 -5 -5 -6 -6 -5 -5 -5 -5 -5 -5 -4 -4 -4 -4
-6 -6 -6 -6 -6 -6 -6 -6 -6 -6 -6 -6 -6 -6 -6 -6 -6 -6 -6 -6 -6 -6 -6 -6 -6 -6 -6 -6 -6 -6 -6 -6 -6 -6 -6 -6 -6 -6 -6 -5 -5 -5 -5
-6 -6 -6 -6 -7 -7 -7 -7 -7 -7 -7 -7 -7 -7 -7 -7 -7 -7 -7 -7 -7 -7 -7 -7 -7 -7 -7 -7 -7 -7 -7 -7 -7 -7 -7 -7 -6 -6 -6 -6 -6 -6 -5
-7 -7 -7 -7 -7 -7 -7 -7 -8 -8 -8 -8 -8 -8 -8 -8 -8 -8 -8 -8 -8 -8 -7 -7 -7 -7 -7 -7 -7 -8 -8 -8 -8 -8 -7 -8 -7 -7 -7 -7 -6 -6 -6
-7 -8 -8 -8 -8 -8 -8 -8 -8 -8 -8 -8 -8 -8 -8 -8 -8 -8 -8 -8 -8 -8 -8 -8 -8 -8 -8 -8 -8 -8 -8 -8 -8 -8 -8 -8 -8 -8 -8 -7 -7 -7 -7
Wind_Speed
3 3 3 3 4 4 3 3 3 4 4 5 5 5 5 5 5 5 6 10 12 11 10 9 9 9 8 7 7 7 7 8 8 7 7 7 6 5 5 4 4 4 4
3 3 3 3 3 3 3 3 3 3 4 4 4 5 5 4 5 5 5 6 10 11 10 10 9 10 9 8 8 7 6 6 6 7 6 6 6 6 5 5 4 3 3
4 3 3 2 3 3 3 3 3 3 3 4 4 4 4 4 4 4 5 5 6 9 11 11 10 10 10 8 8 8 7 6 6 6 6 6 7 7 6 5 5 4 3
4 3 3 2 3 3 3 2 2 2 2 2 2 3 3 4 4 4 5 6 6 6 8 11 11 11 11 10 9 8 7 7 6 6 6 5 5 6 6 6 5 4 3
4 3 3 2 3 3 2 2 2 2 2 2 2 2 3 3 4 4 5 6 7 7 7 8 11 12 12 12 11 10 9 9 8 7 6 6 6 6 6 5 6 5 4
4 4 3 3 3 2 2 2 2 2 2 2 2 2 3 3 4 4 4 5 6 7 7 7 7 8 11 11 12 11 11 10 9 9 8 7 7 6 6 6 6 6 5
3 4 3 3 2 2 2 2 2 3 2 1 1 1 2 3 4 4 4 4 5 6 6 6 6 6 7 9 11 12 11 10 9 8 8 8 8 6 6 6 6 5 5
3 3 3 2 2 2 2 2 2 2 1 0 1 1 1 1 1 2 3 3 4 5 5 6 6 6 6 6 9 12 12 11 9 8 8 8 8 8 7 6 6 6 5
3 3 3 3 2 2 2 2 2 3 2 1 1 1 2 2 0 0 1 2 3 3 4 5 5 6 6 6 7 9 11 11 10 8 8 7 7 7 7 8 7 7 6
3 3 3 3 3 2 2 2 2 2 3 2 1 1 1 1 1 1 1 1 2 2 3 3 4 4 5 5 6 9 10 10 10 10 9 8 7 7 7 7 7 7 7
3 3 3 3 3 3 3 3 2 2 2 3 2 1 1 1 2 2 2 1 1 1 2 2 2 3 3 4 5 8 9 9 9 9 9 9 8 8 7 7 7 7 7
3 3 3 2 3 3 3 3 3 3 3 3 2 2 2 2 2 2 2 3 2 1 1 1 2 2 3 3 5 7 7 8 8 9 8 9 9 9 8 8 7 7 7
3 4 3 3 3 3 3 3 3 3 3 4 3 3 2 2 2 2 2 2 2 2 2 1 1 2 2 3 4 6 5 7 7 8 8 8 8 8 8 9 8 7 7
4 4 5 4 3 3 3 3 3 3 3 3 3 3 2 2 2 2 2 2 2 2 3 2 1 2 2 3 4 5 4 6 7 7 7 7 7 8 8 8 9 8 7
3 4 4 4 4 3 4 3 3 3 3 3 3 3 3 2 2 2 2 3 3 4 4 3 2 2 3 3 4 4 5 6 6 6 6 6 7 7 7 8 8 8 7
4 4 4 4 4 4 4 4 4 4 4 4 3 3 3 3 2 2 3 3 4 5 4 3 3 3 4 4 4 5 6 6 6 6 6 6 6 7 7 7 7 7 7
4 4 4 4 4 4 4 4 5 5 5 5 4 5 5 4 4 3 3 4 4 4 5 4 4 4 5 5 4 5 6 6 6 6 6 6 6 7 7 7 7 7 7
4 4 4 4 4 4 4 5 5 5 6 6 6 6 6 5 5 4 4 5 5 5 5 6 5 4 5 5 5 5 5 6 6 6 7 7 7 7 7 6 6 6 7
4 4 5 5 5 5 5 5 6 6 7 7 7 7 7 6 6 5 6 6 5 5 5 5 5 4 5 5 5 5 5 5 6 6 7 7 7 7 7 7 7 7 7
5 5 5 5 5 5 6 6 6 6 6 6 6 7 7 7 8 7 6 7 6 6 6 5 5 5 5 5 5 5 5 4 4 5 6 6 7 8 8 8 8 8 8
5 5 5 5 5 5 5 6 6 6 6 7 7 8 8 8 9 8 7 7 7 6 6 6 6 5 5 5 5 5 5 5 5 5 5 5 6 6 7 8 8 8 8
5 5 5 5 6 5 7 8 7 6 7 7 7 7 8 9 10 11 11 10 10 9 8 7 7 7 8 7 6 5 5 5 5 3 4 5 6 6 6 7 8 9 9
5 5 6 6 6 7 9 9 9 7 7 7 7 7 6 7 9 8 10 11 11 12 12 10 10 10 9 8 7 7 7 7 7 5 5 6 5 6 6 7 9 9 9
5 5 6 6 6 7 9 10 10 8 7 7 7 8 8 8 8 8 8 8 9 9 10 10 10 10 9 8 8 8 7 7 6 6 6 6 6 6 6 7 9 9 9
5 6 6 6 7 8 9 10 9 6 7 8 8 8 8 8 10 10 9 9 9 8 9 11 12 11 11 11 9 7 6 6 6 6 5 5 5 6 6 6 7 8 9
6 5 6 6 7 7 9 10 10 6 7 7 7 8 10 10 11 11 9 9 9 8 7 8 9 9 9 10 11 9 8 7 6 5 5 5 5 4 4 4 5 5 7
Wind_Direction
104 95 87 86 79 71 72 71 78 77 70 65 61 62 62 60 59 57 51 42 38 37 37 40 42 43 47 48 50 55 59 56 54 53 51 46 43 43 46 44 44 50 58
111 105 92 84 81 74 67 68 76 79 73 67 61 54 53 56 56 54 53 47 40 35 33 35 39 40 41 44 44 45 50 51 51 50 50 46 41 41 43 38 36 41 50
114 109 101 89 81 81 82 82 79 79 73 69 62 52 49 49 53 49 47 44 40 37 33 32 36 39 38 37 38 39 40 43 46 45 46 45 40 38 35 26 21 25 34
112 114 101 91 93 93 92 92 84 88 79 70 61 48 47 48 46 44 46 44 39 33 34 33 33 37 38 37 36 33 31 37 41 42 40 38 32 29 27 26 27 30 33
115 117 101 95 108 104 97 101 105 103 97 77 62 50 46 46 40 39 45 45 40 34 34 35 39 41 40 38 36 33 31 33 36 39 40 37 32 31 23 22 24 22 21
126 120 104 99 107 103 101 112 120 104 101 96 81 62 49 50 47 37 37 43 42 37 35 37 38 39 41 38 36 32 31 31 29 31 34 31 27 25 19 12 11 13 19
130 122 114 112 107 119 124 125 128 124 102 110 117 96 68 63 51 35 32 40 43 37 37 35 34 32 34 36 33 30 26 25 25 28 28 25 21 18 16 8 3 2 9
129 128 122 127 128 138 140 138 142 163 140 171 220 200 203 188 52 33 31 34 36 34 37 35 36 35 33 29 30 29 23 20 18 22 21 18 18 18 12 5 5 5 1
133 133 142 142 139 144 159 166 179 191 185 188 282 251 221 224 221 133 31 30 29 27 30 31 33 33 33 33 26 23 20 17 15 13 14 11 8 6 8 8 6 4 5
142 140 152 153 151 156 169 183 193 208 198 194 206 299 307 318 231 213 191 52 24 18 16 17 22 29 31 32 24 21 16 13 11 9 8 4 359 355 358 357 360 3 1
151 151 156 159 166 175 179 186 194 195 208 212 207 211 222 245 258 242 239 231 297 352 2 358 2 15 22 21 15 13 11 8 6 1 359 358 356 351 348 349 351 356 359
177 172 174 173 182 190 193 195 200 196 207 216 214 216 222 223 228 240 251 254 254 271 315 337 343 360 5 1 6 7 4 0 359 355 353 354 352 352 347 341 340 343 348
197 197 193 192 197 204 204 201 202 204 208 216 222 225 233 246 254 253 252 268 272 275 255 253 299 317 332 336 344 348 351 352 350 344 341 343 347 346 344 342 340 336 336
204 201 202 199 198 200 204 206 209 211 211 219 229 234 239 251 251 256 253 249 262 263 247 252 257 275 302 312 327 324 327 337 337 336 333 336 342 342 339 340 340 338 331
206 201 200 198 197 199 201 201 211 213 213 222 228 229 234 244 250 259 257 253 249 252 255 249 252 254 283 291 304 301 304 319 321 325 329 330 335 336 333 332 331 330 327
197 196 200 198 197 200 203 204 212 212 211 218 224 227 233 238 242 246 249 254 257 256 255 258 267 274 272 275 285 286 290 296 296 306 314 315 318 320 319 318 318 317 320
195 196 200 201 201 206 208 211 217 215 216 219 222 227 234 236 236 236 240 244 247 249 252 266 267 270 265 270 274 276 280 280 282 292 297 300 304 307 308 310 313 314 317
201 201 202 207 209 212 215 219 224 223 223 223 224 227 232 232 235 237 237 240 244 249 254 261 267 267 266 267 270 271 273 274 278 284 286 289 291 294 297 302 307 307 310
206 206 208 212 215 219 222 226 229 231 231 231 228 228 231 231 234 236 237 242 245 248 255 258 263 266 268 260 264 265 268 270 273 275 278 279 280 283 289 291 296 300 302
211 212 217 222 224 227 228 230 232 234 235 236 236 234 233 232 235 237 238 239 243 244 246 249 256 259 260 260 258 260 266 267 270 273 275 274 275 275 277 283 287 289 293
218 220 222 226 229 230 229 230 234 234 238 240 239 239 238 238 242 242 242 240 238 242 245 248 253 257 255 252 251 258 262 268 267 262 270 267 269 270 269 268 271 276 279
222 223 226 228 232 235 236 234 238 239 240 242 244 243 242 240 240 241 245 246 246 246 246 249 252 253 254 254 252 251 257 264 266 256 267 270 266 268 269 268 269 271 273
222 227 231 232 237 241 241 239 241 245 245 246 248 247 245 243 242 245 246 245 247 250 250 252 253 254 257 254 251 249 248 253 264 270 267 266 265 267 267 265 271 270 272
226 231 234 236 242 246 244 242 244 245 246 247 247 247 247 247 242 243 247 249 251 251 250 251 255 256 256 255 250 255 260 262 268 259 251 262 263 266 268 265 262 265 269
234 236 238 238 241 247 246 244 246 248 245 247 248 249 249 250 245 242 245 248 252 256 256 254 257 258 255 251 248 250 246 250 260 257 247 254 262 271 271 265 259 260 267
238 241 243 243 243 248 246 246 247 244 244 246 248 248 247 249 248 244 246 246 249 253 255 254 253 252 249 243 241 242 239 242 254 257 239 246 255 266 272 264 261 266 271
Height
1548 1549 1549 1549 1550 1550 1550 1550 1551 1551 1551 1551 1552 1552 1552 1552 1553 1553 1552 1552 1553 1553 1553 1553 1552 1552 1552 1552 1552 1552 1551 1551 1551 1551 1551 1551 1551 1551 1551 1551 1550 1551 1551
1547 1547 1548 1548 1548 1549 1549 1549 1550 1550 1550 1550 1550 1551 1551 1551 1551 1551 1551 1551 1551 1552 1552 1552 1551 1551 1551 1551 1551 1551 1551 1551 1550 1550 1550 1550 1550 1550 1550 1550 1550 1550 1550
1545 1546 1546 1546 1547 1547 1547 1548 1548 1549 1549 1549 1549 1549 1549 1549 1549 1550 1550 1550 1550 1550 1550 1550 1550 1550 1550 1550 1550 1550 1550 1550 1549 1549 1549 1549 1549 1549 1549 1549 1549 1549 1549
1543 1543 1544 1544 1545 1545 1545 1546 1546 1547 1547 1547 1548 1548 1548 1548 1548 1548 1548 1548 1548 1549 1549 1548 1549 1548 1548 1549 1548 1548 1549 1548 1548 1548 1548 1548 1548 1547 1547 1547 1548 1548 1548
1540 1541 1542 1542 1542 1543 1543 1544 1544 1545 1545 1545 1546 1546 1546 1546 1546 1547 1547 1547 1546 1547 1547 1547 1547 1547 1547 1547 1547 1547 1547 1547 1547 1547 1546 1546 1546 1546 1546 1546 1546 1546 1547
1538 1538 1539 1540 1540 1541 1541 1541 1542 1542 1543 1543 1543 1544 1544 1544 1544 1545 1545 1545 1545 1545 1545 1545 1545 1545 1545 1545 1545 1545 1545 1545 1545 1545 1545 1545 1545 1545 1544 1545 1545 1545 1545
1535 1536 1536 1537 1537 1538 1539 1539 1539 1540 1540 1541 1541 1542 1542 1542 1542 1542 1542 1543 1543 1543 1543 1543 1543 1543 1543 1543 1543 1543 1543 1543 1543 1543 1543 1543 1543 1543 1543 1543 1543 1543 1543
1532 1533 1533 1534 1534 1535 1536 1536 1537 1537 1538 1539 1539 1540 1541 1542 1540 1540 1540 1540 1540 1540 1540 1540 1541 1541 1541 1541 1541 1541 1540 1541 1541 1541 1541 1541 1541 1541 1541 1541 1541 1541 1541
1529 1530 1530 1531 1532 1532 1533 1533 1534 1535 1535 1536 1537 1538 1539 1539 1538 1538 1538 1538 1538 1538 1538 1538 1538 1538 1538 1538 1538 1538 1538 1538 1538 1538 1538 1538 1538 1538 1538 1538 1538 1538 1538
1525 1526 1527 1528 1528 1529 1530 1530 1531 1532 1532 1533 1534 1534 1536 1535 1536 1535 1536 1535 1535 1535 1535 1535 1535 1535 1535 1535 1535 1535 1535 1535 1535 1535 1536 1536 1536 1536 1535 1536 1535 1535 1535
1521 1522 1523 1524 1525 1526 1526 1527 1528 1528 1529 1530 1530 1530 1531 1532 1533 1533 1533 1533 1532 1532 1532 1532 1532 1532 1532 1532 1532 1532 1532 1532 1532 1532 1532 1532 1532 1532 1533 1533 1532 1532 1532
1517 1518 1519 1520 1521 1522 1523 1523 1524 1525 1526 1527 1527 1527 1528 1529 1529 1530 1530 1529 1529 1529 1529 1529 1529 1529 1529 1529 1529 1529 1529 1529 1529 1529 1529 1529 1529 1529 1529 1529 1529 1529 1529
1513 1514 1515 1516 1517 1518 1519 1519 1520 1521 1522 1523 1523 1524 1524 1525 1526 1527 1527 1527 1526 1526 1526 1526 1526 1526 1526 1526 1526 1526 1526 1526 1525 1525 1525 1525 1525 1525 1525 1525 1525 1525 1525
1509 1510 1511 1512 1513 1514 1515 1516 1516 1517 1518 1519 1520 1520 1520 1521 1522 1523 1524 1525 1524 1523 1523 1523 1523 1523 1523 1523 1522 1522 1522 1522 1522 1522 1521 1521 1521 1521 1521 1522 1521 1521 1521
1505 1506 1507 1508 1509 1510 1511 1512 1512 1513 1514 1515 1516 1516 1517 1517 1518 1519 1520 1521 1522 1521 1520 1520 1520 1520 1520 1519 1519 1519 1519 1518 1518 1518 1517 1517 1517 1517 1517 1517 1517 1517 1517
1501 1502 1502 1503 1504 1505 1506 1508 1508 1509 1509 1510 1511 1512 1513 1513 1514 1515 1516 1517 1517 1518 1517 1516 1516 1516 1516 1516 1515 1515 1515 1514 1514 1514 1513 1513 1513 1513 1513 1512 1512 1512 1512
1496 1497 1498 1499 1500 1501 1502 1503 1504 1505 1505 1506 1507 1508 1508 1509 1510 1510 1511 1512 1513 1513 1512 1511 1512 1512 1512 1512 1511 1511 1511 1510 1510 1509 1509 1509 1508 1508 1508 1508 1508 1508 1508
1492 1493 1494 1495 1496 1497 1498 1498 1499 1500 1501 1502 1502 1503 1504 1504 1505 1506 1507 1507 1508 1508 1508 1507 1507 1507 1507 1507 1507 1507 1506 1506 1505 1505 1505 1504 1504 1504 1503 1503 1503 1503 1503
1488 1489 1490 1491 1491 1492 1493 1494 1495 1496 1496 1497 1498 1498 1499 1499 1500 1501 1501 1502 1503 1503 1503 1503 1502 1502 1502 1503 1502 1502 1502 1501 1501 1500 1500 1500 1499 1499 1499 1499 1499 1499 1498
1483 1484 1485 1486 1487 1488 1489 1489 1490 1491 1491 1492 1492 1493 1494 1495 1495 1496 1496 1497 1497 1498 1498 1498 1498 1497 1498 1498 1498 1497 1497 1497 1496 1496 1495 1495 1495 1494 1494 1494 1494 1494 1494
1479 1480 1481 1481 1482 1483 1484 1485 1485 1485 1486 1487 1487 1488 1488 1489 1490 1491 1491 1492 1492 1493 1493 1493 1493 1492 1492 1493 1493 1492 1492 1492 1491 1491 1490 1490 1490 1489 1489 1489 1489 1489 1489
1474 1475 1476 1476 1477 1478 1479 1480 1480 1480 1481 1481 1482 1482 1483 1483 1484 1485 1486 1486 1487 1488 1488 1488 1487 1487 1487 1488 1488 1487 1487 1487 1487 1487 1486 1485 1485 1485 1484 1484 1484 1484 1484
1469 1470 1471 1472 1472 1473 1474 1475 1475 1476 1476 1476 1476 1477 1477 1478 1479 1479 1480 1480 1481 1481 1482 1483 1482 1482 1482 1482 1483 1482 1482 1482 1481 1481 1481 1480 1480 1480 1479 1479 1479 1479 1479
1465 1465 1466 1467 1467 1468 1469 1470 1470 1470 1470 1471 1471 1471 1472 1472 1473 1474 1474 1474 1475 1475 1476 1476 1476 1476 1477 1477 1477 1477 1477 1477 1476 1476 1477 1476 1475 1475 1474 1474 1474 1474 1474
1460 1461 1461 1461 1462 1463 1464 1464 1465 1465 1465 1465 1466 1466 1466 1467 1467 1468 1469 1468 1469 1469 1469 1470 1470 1470 1470 1471 1471 1472 1471 1471 1470 1471 1471 1471 1470 1470 1469 1469 1469 1469 1469
1455 1456 1456 1457 1457 1457 1458 1459 1459 1460 1460 1460 1460 1460 1461 1461 1462 1463 1463 1463 1463 1463 1464 1464 1464 1464 1464 1464 1465 1466 1466 1466 1465 1465 1465 1466 1465 1465 1464 1463 1464 1463 1463